[[{"header":{"parameterUnit":"m.s-1","parameterCategory":1,"la1":30.2991,"la2":30.254,"lo1":-89.0895,"lo2":-89.0444,"dy":0.0017,"dx":0.0017,"nx":28,"ny":28,"refTime":"2023-07-18T09:00:00:Z","depth":0,"parameterNumber":2,"parameterNumberName":"U-component_of_WINDS"},"data":[0,0,0,0,0,0,0,0,0,0,0,0,0,0,0,0,0,0,0,0,0,0,0,0,0,0,0,0,0,0,0,0,0,0,0,0,0,0,0,0,0,0,0,0,0,0,0,0,0,0,0,0,0,0,0,0,0,0,2.5084,2.5083,0,2.5029,2.5028,2.5028,2.4904,2.4901,2.4899,2.4896,2.4843,2.4844,2.4845,0,0,0,0,0,0,0,0,0,0,0,0,0,2.5082,2.5083,2.5084,2.5083,2.5082,2.5029,2.5028,2.5028,2.4904,2.4901,2.4898,2.4895,2.4843,2.4844,2.4845,0,0,0,0,0,0,0,0,0,0,0,0,0,2.5061,2.5083,2.5084,2.5014,2.5007,2.5029,2.5028,2.5027,2.4905,2.4901,2.4897,2.4893,2.4843,2.4844,2.4845,2.4931,0,0,2.485,2.4851,0,0,0,0,0,0,0,0,2.5062,2.5061,2.5025,2.5019,2.5011,2.4969,2.5008,2.4995,2.4906,2.4944,2.4896,2.4892,2.4888,2.4886,2.4884,2.4929,2.4927,2.485,2.4851,2.4852,2.4852,0,0,0,0,0,0,0,2.5064,2.5063,2.5062,2.5025,2.5016,2.4986,2.4979,2.5005,2.4939,2.494,2.4931,2.4926,2.4884,2.4883,2.4882,2.4926,2.485,2.4851,2.4852,2.4853,2.5035,2.5039,0,0,0,0,0,0,2.5075,2.5065,2.5064,2.506,2.5028,2.4989,2.4981,2.4987,2.4938,2.4927,2.4929,2.4921,2.4882,2.488,2.488,2.4975,2.4852,2.4853,2.4854,2.5031,2.5036,2.504,0,0,0,0,0,0,2.5076,2.5076,2.5066,2.506,2.5056,2.4993,2.5001,2.4988,2.4986,2.493,2.4917,2.4941,2.4879,2.4878,2.4918,2.4971,2.4854,2.4855,2.5026,2.5033,2.5038,2.5167,0,0,0,0,0,0,2.5076,2.5077,2.5109,2.5062,2.5057,2.5106,2.5004,2.4989,2.4989,2.4977,2.4937,2.4927,2.4876,2.4917,2.492,2.4971,2.4856,2.5021,2.5029,2.5036,2.5158,2.5177,2.5193,0,0,0,0,0,2.5076,2.5149,2.5111,2.5112,2.5096,2.5109,2.5107,2.5046,2.4994,2.5025,2.4988,2.4928,2.4965,2.4922,2.4925,2.4977,2.5018,2.5027,2.5036,2.515,2.5173,2.5193,0,0,0,0,0,0,2.5206,2.5142,2.5099,2.5158,2.514,2.5088,2.5126,2.5073,2.507,2.5059,2.4985,2.4977,2.5027,2.5006,2.496,2.5056,2.4982,2.4992,2.5068,2.5089,2.5106,2.511,2.4857,0,0,0,0,0,2.5241,2.5257,2.52,2.5258,2.525,2.519,2.5194,2.5149,2.5127,2.5119,2.5085,2.5067,2.5074,2.5081,2.5085,2.5154,2.5143,2.5191,2.5209,2.5224,2.5233,2.5266,2.5286,2.507,2.5069,2.5069,0,0,2.5315,2.5281,2.5296,2.5283,2.5263,2.5281,2.5185,2.5208,2.522,2.5123,2.5158,2.5133,2.5108,2.5163,2.5186,2.5147,2.529,2.5235,2.5247,2.5248,2.5277,2.5298,2.5316,2.5076,2.5074,2.5074,0,0,2.5457,2.5434,2.5478,2.546,2.543,2.5389,2.54,2.5356,2.5335,2.5369,2.5295,2.5309,2.5324,2.5308,2.5302,2.5436,2.538,2.544,2.5531,2.5564,2.5581,2.5596,2.5642,2.5659,2.5449,2.545,2.545,0,2.5552,2.5575,2.5508,2.5535,2.5531,2.5441,2.5485,2.5471,2.5446,2.5445,2.5401,2.5416,2.5393,2.5442,2.5474,2.5473,2.5482,2.5444,2.5584,2.5598,2.5611,2.5654,2.5671,2.5457,2.5456,2.5455,2.5455,0,2.5692,2.5709,2.5748,2.5723,2.5724,2.576,2.5698,2.5706,2.5661,2.5624,2.5659,2.5628,2.5623,2.5631,2.5589,2.5674,2.565,2.5597,2.552,2.564,2.5679,2.5695,2.5467,2.5465,2.5462,2.5461,0,0,2.5915,2.585,2.5866,2.5852,2.5813,2.5825,2.5856,2.5849,2.5857,2.5842,2.5865,2.5879,2.5828,2.5821,2.5776,2.5805,2.591,2.5747,2.5745,2.5777,2.6,2.604,2.606,2.5873,2.5876,2.5878,2.6002,0,2.6046,2.6094,2.6034,2.6095,2.6109,2.6024,2.6051,2.6029,2.5996,2.6003,2.5966,2.5976,2.591,2.5904,2.593,2.5892,2.5954,2.5883,2.5893,2.5895,2.5901,2.608,2.6123,2.6241,2.6017,2.6019,2.6021,0,2.6206,2.6196,2.6259,2.6212,2.6216,2.6241,2.6229,2.6237,2.6211,2.6184,2.6176,2.612,2.6147,2.6073,2.6109,2.6062,2.6062,2.6045,2.6048,2.6045,2.5964,2.6082,2.6277,2.6294,2.6045,2.6043,2.6041,0,2.636,2.6363,2.6399,2.6391,2.6338,2.6358,2.6337,2.6307,2.6306,2.6295,2.6294,2.6288,2.6284,2.6281,2.6224,2.6176,2.6266,2.6189,2.6244,2.6246,2.6266,2.6266,2.6463,2.627,2.627,2.6269,2.6269,0,2.6512,2.6553,2.6467,2.649,2.6532,2.6463,2.6507,2.6478,2.6451,2.6467,2.6394,2.641,2.6335,2.6343,2.63,2.6334,2.6334,2.6313,2.6301,2.6319,2.6321,2.6317,2.6307,2.6274,2.6273,2.6272,2.6271,0,2.669,2.6635,2.6668,2.6615,2.6603,2.6637,2.6591,2.661,2.6571,2.6591,2.6592,2.6532,2.6537,2.6481,2.6476,2.6447,2.6501,2.6476,2.651,2.6501,2.6559,2.6554,2.676,2.6783,2.6577,2.6579,2.6581,0,2.679,2.6819,2.6769,2.6773,2.6755,2.6763,2.6761,2.6693,2.6694,2.6665,2.6687,2.6686,2.6681,2.6694,2.665,2.6646,2.6618,2.6691,2.6617,2.6634,2.6617,2.6615,2.6617,2.6706,2.6709,2.6711,2.6713,0,2.6973,2.6943,2.6942,2.6931,2.693,2.6919,2.6903,2.6911,2.6837,2.6842,2.6845,2.6842,2.6835,2.6835,2.6822,2.6801,2.6744,2.6736,2.6748,2.6766,2.6784,2.6773,2.655,2.6731,2.673,2.6728,2.6727,2.6726,2.7113,2.7134,2.7101,2.7102,2.7082,2.7068,2.7082,2.7044,2.7046,2.7034,2.6995,2.7005,2.6976,2.6952,2.6936,2.6943,2.6907,2.6926,2.693,2.6935,2.6945,2.6784,2.694,2.694,2.6939,2.6939,2.6938,0,2.729,2.7264,2.7266,2.7244,2.7245,2.719,2.7169,2.7174,2.7183,2.716,2.7156,2.716,2.7159,2.7114,2.7107,2.7121,2.7095,2.7122,2.7119,2.7115,2.6978,2.6967,2.7143,2.7143,2.7143,2.7143,2.7143,2.7143,2.7382,2.7414,2.738,2.7401,2.7374,2.7382,2.7375,2.7361,2.7342,2.7349,2.7347,2.7317,2.7285,2.7275,2.7272,2.7258,2.7259,2.7294,2.7272,2.7145,2.7125,2.7106,2.7095,2.7295,2.7295,2.7408,2.7409,2.741]},{"header":{"parameterUnit":"m.s-1","parameterCategory":1,"la1":30.2991,"la2":30.254,"lo1":-89.0895,"lo2":-89.0444,"dy":0.0017,"dx":0.0017,"nx":28,"ny":28,"refTime":"2023-07-18T09:00:00:Z","depth":0,"parameterNumber":3,"parameterNumberName":"V-component_of_WINDS"},"data":[0,0,0,0,0,0,0,0,0,0,0,0,0,0,0,0,0,0,0,0,0,0,0,0,0,0,0,0,0,0,0,0,0,0,0,0,0,0,0,0,0,0,0,0,0,0,0,0,0,0,0,0,0,0,0,0,0,0,4.0654,4.0655,0,4.0818,4.082,4.0822,4.0842,4.084,4.0839,4.0837,4.1004,4.101,4.1016,0,0,0,0,0,0,0,0,0,0,0,0,0,4.0355,4.036,4.0653,4.0655,4.0658,4.0818,4.082,4.0822,4.0842,4.084,4.0838,4.0837,4.1002,4.1009,4.1016,0,0,0,0,0,0,0,0,0,0,0,0,0,4.0498,4.0362,4.0653,4.0687,4.0692,4.0817,4.082,4.0823,4.0843,4.084,4.0838,4.0836,4.1,4.1008,4.1017,4.112,0,0,4.1044,4.1048,0,0,0,0,0,0,0,0,4.049,4.0509,4.068,4.0685,4.069,4.0807,4.0776,4.0923,4.0843,4.0785,4.0837,4.0834,4.094,4.0954,4.099,4.1128,4.1135,4.1045,4.1051,4.1054,4.1057,0,0,0,0,0,0,0,4.048,4.0502,4.0719,4.0682,4.0689,4.0693,4.0711,4.0804,4.0874,4.079,4.0792,4.0811,4.0943,4.0981,4.0994,4.1138,4.1045,4.1053,4.1058,4.1062,4.1368,4.1371,0,0,0,0,0,0,4.0464,4.0494,4.0713,4.0724,4.0582,4.0701,4.072,4.0772,4.0873,4.0886,4.0813,4.0812,4.0967,4.0984,4.1,4.1127,4.1054,4.1063,4.1068,4.1365,4.1369,4.1372,0,0,0,0,0,0,4.0458,4.0484,4.0707,4.0609,4.0638,4.0708,4.0766,4.0777,4.0815,4.0891,4.0903,4.084,4.0966,4.0988,4.109,4.1133,4.1067,4.1075,4.1362,4.1366,4.137,4.1382,0,0,0,0,0,0,4.0449,4.0481,4.0521,4.061,4.0643,4.0795,4.0769,4.0781,4.0831,4.083,4.0919,4.0932,4.0966,4.1077,4.1099,4.1144,4.1082,4.1358,4.1364,4.1369,4.1378,4.1386,4.1393,0,0,0,0,0,4.0438,4.0518,4.0523,4.055,4.0695,4.0797,4.0816,4.0855,4.0834,4.0875,4.0923,4.0929,4.1125,4.1087,4.1112,4.1161,4.1356,4.1362,4.1368,4.1374,4.1384,4.1392,0,0,0,0,0,0,4.0432,4.053,4.0537,4.0648,4.0714,4.08,4.0853,4.0864,4.0936,4.0933,4.0977,4.0997,4.1098,4.114,4.1096,4.1266,4.1238,4.125,4.1234,4.1244,4.1251,4.1239,4.1089,0,0,0,0,0,4.0443,4.0518,4.06,4.069,4.0723,4.0782,4.0828,4.0852,4.0922,4.095,4.1006,4.1073,4.115,4.12,4.1274,4.1384,4.1403,4.143,4.1437,4.1443,4.1452,4.1513,4.1525,4.1392,4.1392,4.1392,0,0,4.0467,4.053,4.0575,4.069,4.0744,4.082,4.0805,4.0887,4.0944,4.0962,4.1062,4.1106,4.1184,4.129,4.134,4.1329,4.1493,4.1451,4.1455,4.1461,4.152,4.1533,4.1544,4.1397,4.1396,4.1395,0,0,4.055,4.0606,4.0687,4.0741,4.0824,4.0863,4.0882,4.0967,4.0997,4.1099,4.1114,4.1182,4.1313,4.1368,4.1413,4.1517,4.1525,4.1541,4.1579,4.1637,4.1648,4.1657,4.1694,4.1706,4.155,4.155,4.155,0,4.057,4.0686,4.0727,4.0808,4.0857,4.0879,4.096,4.1011,4.1113,4.1147,4.1133,4.1298,4.1352,4.1472,4.1497,4.1533,4.1556,4.153,4.1643,4.1653,4.1662,4.1698,4.1711,4.1551,4.1551,4.1551,4.1551,0,4.0706,4.0786,4.0841,4.094,4.0996,4.1077,4.1129,4.1181,4.12,4.124,4.1343,4.1409,4.1497,4.1528,4.1547,4.165,4.164,4.1634,4.1608,4.1676,4.1709,4.1723,4.1553,4.1553,4.1552,4.1552,0,0,4.0788,4.0909,4.0928,4.0973,4.1066,4.1128,4.121,4.1297,4.134,4.141,4.1479,4.159,4.1585,4.1636,4.1662,4.1714,4.1791,4.1702,4.1704,4.1715,4.1908,4.1911,4.1926,4.1797,4.18,4.1802,4.1901,0,4.0881,4.1028,4.1066,4.119,4.1265,4.1286,4.1357,4.1421,4.1461,4.153,4.1574,4.1651,4.1639,4.167,4.1722,4.1771,4.183,4.1764,4.1861,4.1864,4.1839,4.1943,4.1947,4.2037,4.1914,4.1916,4.1918,0,4.1009,4.1082,4.1213,4.1296,4.1329,4.1392,4.1474,4.154,4.1613,4.1638,4.1696,4.1717,4.1802,4.1772,4.189,4.1844,4.1886,4.1916,4.192,4.193,4.1894,4.1955,4.2067,4.208,4.1939,4.1938,4.1936,0,4.1055,4.1186,4.1281,4.1319,4.1418,4.1462,4.1505,4.1576,4.1626,4.1698,4.1731,4.1812,4.1856,4.1918,4.1961,4.1935,4.2075,4.2048,4.2097,4.2096,4.2125,4.2122,4.2244,4.2154,4.2153,4.2153,4.2153,0,4.1154,4.1233,4.1303,4.1362,4.1451,4.1495,4.1582,4.1626,4.1689,4.1756,4.178,4.1842,4.1895,4.1964,4.1998,4.209,4.211,4.2132,4.214,4.213,4.2127,4.2157,4.2151,4.2157,4.2156,4.2155,4.2155,0,4.1219,4.127,4.1375,4.146,4.1484,4.1546,4.1619,4.1676,4.1717,4.1802,4.1824,4.1888,4.1971,4.202,4.2125,4.2147,4.2249,4.2254,4.2224,4.2227,4.2274,4.2268,4.2418,4.244,4.2336,4.2337,4.2338,0,4.1278,4.134,4.1432,4.1479,4.1523,4.1598,4.1649,4.1695,4.1747,4.1835,4.1882,4.1966,4.2036,4.2168,4.2223,4.2303,4.231,4.2358,4.2323,4.231,4.231,4.2305,4.2311,4.2363,4.2364,4.2365,4.2365,0,4.1378,4.14,4.1472,4.1554,4.1614,4.1681,4.1747,4.1784,4.1841,4.1898,4.1984,4.2038,4.2145,4.2229,4.2313,4.2357,4.2371,4.2376,4.2392,4.2381,4.236,4.2371,4.2239,4.2372,4.2371,4.2371,4.2371,4.237,4.1441,4.1497,4.157,4.165,4.1705,4.1766,4.1824,4.1873,4.1945,4.2036,4.2059,4.2148,4.222,4.2336,4.2382,4.2452,4.2444,4.2467,4.2472,4.2477,4.2478,4.235,4.2468,4.2468,4.2468,4.2467,4.2467,0,4.1541,4.1589,4.1663,4.1755,4.1818,4.1826,4.1899,4.1951,4.203,4.2096,4.2164,4.2262,4.2344,4.2406,4.2489,4.2533,4.2541,4.2553,4.255,4.256,4.248,4.2458,4.2545,4.2545,4.2545,4.2545,4.2545,4.2545,4.16,4.1694,4.1724,4.1846,4.1894,4.1982,4.2023,4.208,4.2133,4.2241,4.2309,4.2349,4.2414,4.2502,4.2576,4.2593,4.2621,4.2632,4.2649,4.2574,4.2565,4.2557,4.2537,4.2639,4.2639,4.2723,4.2723,4.2724]}]]